INSAT-3DR

Last updated on Aug. 11, 2020, 5:35 a.m. UTC

1 41752U 16054A   20223.74980154 -.00000077  00000-0  00000+0 0  9996
2 41752   0.1010  97.8242 0010902 165.6952  40.0830  1.00272517 14376
UTC
Height (km)
Latitude
Longitude
Inclination
Orbital Period
UTC large
Height (km)
Speed (km/s)
/
Latitude / Longitude
Inclination (degrees)
Orbital Period (minutes)
Azimuth
Elevation
Range (km)
Doppler Factor
iOS Compass Heading
iOS Angle

Next 30 passes for location: Hong Kong

Rise time Rise Azimuth (degrees) Set time Set Azimuth (degrees) Duration Max altitude (degrees)

No matching passes for this satellites